This demonstration page uses our WeatherBlox Daily Observations layout. Learn more.

Left ArrowRight Arrow

39.01783, -85.05884

Hourly Observations for March 25, 2020

Temp ( °F °C ) Dew Point ( °F °C ) Humidity (%) Winds ( mph kmh ) Pressure ( in mb ) Visibility ( mi km ) Precip ( " mm )
12:52 am 00:52 Cloudy 44 6.7 40 4.4 85 85 NE 10 17 29.85 1011 7 11 0.01 0.25
1:52 am 01:52 Cloudy with Mist and Fog 44 6.7 40 4.4 85 85 N 9 15 29.86 1011 6 10 0.00 0.00
2:44 am 02:44 Mostly Cloudy with Mist and Fog 42 5.6 39 3.9 89 89 N 13 20 29.90 1012 5 8 0.00 0.00
2:52 am 02:52 Mostly Cloudy with Mist and Fog 42 5.6 39 3.9 89 89 N 15 24 29.86 1011 5 8 0.00 0.00
2:56 am 02:56 Mostly Cloudy with Mist and Fog 42 5.6 39 3.9 89 89 N 13 20 29.90 1012 5 8 0.00 0.00
3:52 am 03:52 Cloudy with Mist and Fog 42 5.6 39 3.9 89 89 N 12 19 29.86 1011 5 8 0.00 0.00
4:06 am 04:06 Cloudy with Mist and Fog 42 5.6 39 3.9 89 89 N 12 19 29.90 1012 5 8 0.00 0.00
4:24 am 04:24 Cloudy with Mist and Fog 42 5.6 39 3.9 89 89 N 10 17 29.90 1012 5 8 0.00 0.00
4:47 am 04:47 Cloudy with Mist and Fog 41 5 39 4 93 93 N 10 17 29.90 1012 5 8 0.00 0.00
4:52 am 04:52 Cloudy with Mist and Fog 42 5.6 38 3.3 85 85 N 10 17 29.87 1012 5 8 0.00 0.00
5:52 am 05:52 Mostly Cloudy with Mist and Fog 41 5 38 3.3 89 89 NNW 9 15 29.90 1012 4 6 0.00 0.00
6:52 am 06:52 Mostly Clear with Mist and Fog 40 4.4 37 2.8 89 89 NNW 8 13 29.92 1013 4 6 0.00 0.00
7:17 am 07:17 Mostly Cloudy with Mist and Fog 40 4.4 37 2.8 89 89 NNW 10 17 29.96 1015 3 5 0.00 0.00
7:34 am 07:34 Mostly Cloudy with Mist and Fog 39 3.9 36 2.2 89 89 NNW 10 17 29.96 1015 3 4 0.00 0.00
7:52 am 07:52 Mostly Cloudy with Mist and Fog 40 4.4 37 2.8 89 89 NNW 10 17 29.94 1014 3 4 0.00 0.00
8:25 am 08:25 Partly Cloudy with Mist and Fog 39 3.9 37 2.8 93 93 N 7 11 29.99 1016 3 4 0.00 0.00
8:52 am 08:52 Partly Cloudy with Mist and Fog 40 4.4 37 2.8 89 89 N 9 15 29.97 1015 3 5 0.00 0.00
9:52 am 09:52 Sunny with Mist and Fog 44 6.7 38 3.3 79 79 NNW 6 9 29.99 1016 4 6 0.00 0.00
10:52 am 10:52 Sunny 49 9.4 40 4.4 71 71 Calm 29.99 1016 7 11 0.00 0.00
11:52 am 11:52 Sunny 52 11.1 39 3.9 61 61 Calm 29.98 1015 8 13 0.00 0.00
12:52 pm 12:52 Sunny 57 13.9 40 4.4 53 53 Calm 29.99 1016 10 16 0.00 0.00
1:52 pm 13:52 Mostly Sunny 58 14.4 38 3.3 48 48 VRB 3 6 29.98 1015 10 16 0.00 0.00
2:52 pm 14:52 Mostly Sunny 62 16.7 37 2.8 40 40 NNE 5 7 29.97 1015 10 16 0.00 0.00
3:52 pm 15:52 Sunny 63 17.2 40 4.4 43 43 WNW 6 9 29.95 1014 10 16 0.00 0.00
4:52 pm 16:52 Mostly Sunny 64 17.8 38 3.3 38 38 SSW 6 9 29.93 1014 10 16 0.00 0.00
5:52 pm 17:52 Mostly Sunny 63 17.2 36 2.2 37 37 VRB 3 6 29.92 1013 10 16 0.00 0.00
6:52 pm 18:52 Mostly Sunny 62 16.7 39 3.9 43 43 S 9 15 29.93 1013 10 16 0.00 0.00
7:52 pm 19:52 Mostly Sunny 59 15 36 2.2 42 42 SSW 5 7 29.93 1014 10 16 0.00 0.00
8:52 pm 20:52 Mostly Clear 57 13.9 36 2.2 45 45 SW 3 6 29.94 1014 10 16 0.00 0.00
9:52 pm 21:52 Partly Cloudy 54 12.2 36 2.2 51 51 Calm 29.96 1015 10 16 0.00 0.00
10:52 pm 22:52 Partly Cloudy 50 10 40 4.4 68 68 S 8 13 29.96 1015 10 16 0.00 0.00
11:52 pm 23:52 Mostly Clear 50 10 41 5 71 71 S 7 11 29.95 1014 10 16 0.00 0.00

Powered by AerisWeather